Time,TemperatureF,DewpointF,PressureIn,WindDirection,WindDirectionDegrees,WindSpeedMPH,WindSpeedGustMPH,Humidity,HourlyPrecipIn,Conditions,Clouds,dailyrainin,SoftwareType,DateUTC
2013-05-04 00:02:00,63.0,47.0,30.03,East,90,1.0,6.0,55,0.00,,,0.00,,2013-05-04 04:02:00,
2013-05-04 00:12:00,63.0,47.0,30.03,East,90,1.0,6.0,55,0.00,,,0.00,,2013-05-04 04:12:00,
2013-05-04 00:22:00,63.0,47.0,30.01,NE,45,2.0,4.0,55,0.00,,,0.00,,2013-05-04 04:22:00,
2013-05-04 00:33:00,63.0,46.0,30.02,ESE,112,1.0,5.0,54,0.00,,,0.00,,2013-05-04 04:33:00,
2013-05-04 00:42:00,63.0,46.0,30.02,ESE,112,1.0,5.0,54,0.00,,,0.00,,2013-05-04 04:42:00,
2013-05-04 00:52:00,62.0,46.0,30.02,ESE,112,2.0,5.0,55,0.00,,,0.00,,2013-05-04 04:52:00,
2013-05-04 01:02:00,62.0,45.0,30.03,ESE,112,1.0,4.0,54,0.00,,,0.00,,2013-05-04 05:02:00,
2013-05-04 01:12:00,62.0,45.0,30.02,ESE,112,2.0,5.0,54,0.00,,,0.00,,2013-05-04 05:12:00,
2013-05-04 01:22:00,62.0,45.0,30.02,ESE,112,2.0,5.0,54,0.00,,,0.00,,2013-05-04 05:22:00,
2013-05-04 01:32:00,62.0,45.0,30.05,East,90,2.0,5.0,53,0.00,,,0.00,,2013-05-04 05:32:00,
2013-05-04 01:43:00,62.0,45.0,30.05,East,90,2.0,5.0,53,0.00,,,0.00,,2013-05-04 05:43:00,
2013-05-04 01:52:00,62.0,44.0,30.03,East,90,2.0,5.0,52,0.00,,,0.00,,2013-05-04 05:52:00,
2013-05-04 02:01:00,62.0,44.0,30.03,East,90,2.0,7.0,52,0.00,,,0.00,,2013-05-04 06:01:00,
2013-05-04 02:11:00,61.0,44.0,30.03,East,90,2.0,5.0,54,0.00,,,0.00,,2013-05-04 06:11:00,
2013-05-04 02:21:00,61.0,44.0,30.03,East,90,2.0,5.0,54,0.00,,,0.00,,2013-05-04 06:21:00,
2013-05-04 02:32:00,61.0,44.0,30.03,East,90,3.0,8.0,54,0.00,,,0.00,,2013-05-04 06:32:00,
2013-05-04 02:42:00,61.0,44.0,30.03,East,90,3.0,8.0,54,0.00,,,0.00,,2013-05-04 06:42:00,
2013-05-04 02:52:00,61.0,44.0,30.05,ESE,112,3.0,4.0,54,0.00,,,0.00,,2013-05-04 06:52:00,
2013-05-04 03:01:00,60.0,43.0,30.03,East,90,2.0,5.0,54,0.00,,,0.00,,2013-05-04 07:01:00,
2013-05-04 03:11:00,60.0,43.0,30.03,ESE,112,2.0,4.0,54,0.00,,,0.00,,2013-05-04 07:11:00,
2013-05-04 03:21:00,60.0,43.0,30.03,ESE,112,2.0,4.0,54,0.00,,,0.00,,2013-05-04 07:21:00,
2013-05-04 03:32:00,60.0,44.0,30.03,ENE,67,2.0,6.0,56,0.00,,,0.00,,2013-05-04 07:32:00,
2013-05-04 03:42:00,60.0,44.0,30.03,ENE,67,2.0,6.0,56,0.00,,,0.00,,2013-05-04 07:42:00,
2013-05-04 03:52:00,59.0,43.0,30.03,NE,45,3.0,8.0,56,0.00,,,0.00,,2013-05-04 07:52:00,
2013-05-04 04:01:00,59.0,44.0,30.05,East,90,2.0,5.0,58,0.00,,,0.00,,2013-05-04 08:01:00,
2013-05-04 04:11:00,59.0,44.0,30.05,East,90,2.0,5.0,58,0.00,,,0.00,,2013-05-04 08:11:00,
2013-05-04 04:21:00,58.0,43.0,30.05,ESE,112,3.0,5.0,58,0.00,,,0.00,,2013-05-04 08:21:00,
2013-05-04 04:32:00,59.0,44.0,30.05,East,90,4.0,10.0,58,0.00,,,0.00,,2013-05-04 08:32:00,
2013-05-04 04:42:00,59.0,44.0,30.05,East,90,4.0,10.0,58,0.00,,,0.00,,2013-05-04 08:42:00,
2013-05-04 04:52:00,58.0,44.0,30.05,SE,135,2.0,7.0,59,0.00,,,0.00,,2013-05-04 08:52:00,
2013-05-04 05:02:00,58.0,45.0,30.05,ENE,67,1.0,6.0,61,0.00,,,0.00,,2013-05-04 09:02:00,
2013-05-04 05:11:00,58.0,45.0,30.05,ENE,67,1.0,6.0,61,0.00,,,0.00,,2013-05-04 09:11:00,
2013-05-04 05:22:00,57.0,45.0,30.07,East,90,2.0,3.0,64,0.00,,,0.00,,2013-05-04 09:22:00,
2013-05-04 05:32:00,58.0,46.0,30.07,East,90,2.0,7.0,64,0.00,,,0.00,,2013-05-04 09:32:00,
2013-05-04 05:42:00,58.0,46.0,30.07,East,90,2.0,7.0,64,0.00,,,0.00,,2013-05-04 09:42:00,
2013-05-04 05:53:00,57.0,46.0,30.06,SSE,157,2.0,4.0,67,0.00,,,0.00,,2013-05-04 09:53:00,
2013-05-04 06:03:00,57.0,47.0,30.06,East,90,3.0,8.0,68,0.00,,,0.00,,2013-05-04 10:03:00,
2013-05-04 06:12:00,57.0,47.0,30.06,East,90,3.0,8.0,68,0.00,,,0.00,,2013-05-04 10:12:00,
2013-05-04 06:23:00,57.0,47.0,30.07,East,90,3.0,3.0,69,0.00,,,0.00,,2013-05-04 10:23:00,
2013-05-04 06:33:00,57.0,48.0,30.07,East,90,3.0,8.0,71,0.00,,,0.00,,2013-05-04 10:33:00,
2013-05-04 06:42:00,57.0,48.0,30.07,East,90,3.0,8.0,71,0.00,,,0.00,,2013-05-04 10:42:00,
2013-05-04 06:53:00,57.0,48.0,30.07,ESE,112,2.0,6.0,73,0.00,,,0.00,,2013-05-04 10:53:00,
2013-05-04 07:02:00,57.0,48.0,30.07,East,90,2.0,3.0,72,0.00,,,0.00,,2013-05-04 11:02:00,
2013-05-04 07:11:00,57.0,48.0,30.07,East,90,2.0,3.0,72,0.00,,,0.00,,2013-05-04 11:11:00,
2013-05-04 07:21:00,57.0,48.0,30.07,East,90,1.0,3.0,73,0.00,,,0.00,,2013-05-04 11:21:00,
2013-05-04 07:32:00,57.0,49.0,30.07,ESE,112,2.0,3.0,74,0.00,,,0.00,,2013-05-04 11:32:00,
2013-05-04 07:44:00,57.0,49.0,30.07,ESE,112,2.0,3.0,74,0.00,,,0.00,,2013-05-04 11:44:00,
2013-05-04 08:03:00,57.0,49.0,30.08,East,90,2.0,4.0,74,0.00,,,0.00,,2013-05-04 12:03:00,
2013-05-04 08:14:00,57.0,49.0,30.07,ENE,67,1.0,3.0,74,0.00,,,0.00,,2013-05-04 12:14:00,
2013-05-04 08:30:00,57.0,49.0,30.07,ENE,67,1.0,5.0,75,0.00,,,0.00,,2013-05-04 12:30:00,
2013-05-04 08:37:00,57.0,50.0,30.07,ENE,67,1.0,6.0,76,0.00,,,0.00,,2013-05-04 12:37:00,
2013-05-04 08:42:00,57.0,50.0,30.07,ENE,67,1.0,6.0,76,0.00,,,0.00,,2013-05-04 12:42:00,
2013-05-04 08:52:00,58.0,50.0,30.07,ENE,67,2.0,7.0,74,0.00,,,0.00,,2013-05-04 12:52:00,
2013-05-04 09:01:00,59.0,50.0,30.06,NE,45,3.0,10.0,71,0.00,,,0.00,,2013-05-04 13:01:00,
2013-05-04 09:11:00,59.0,50.0,30.06,NE,45,3.0,10.0,71,0.00,,,0.00,,2013-05-04 13:11:00,
2013-05-04 09:21:00,59.0,49.0,30.05,East,90,6.0,12.0,69,0.00,,,0.00,,2013-05-04 13:21:00,
2013-05-04 09:32:00,60.0,50.0,30.03,ENE,67,5.0,12.0,69,0.00,,,0.00,,2013-05-04 13:32:00,
2013-05-04 09:42:00,60.0,50.0,30.03,ENE,67,5.0,12.0,69,0.00,,,0.00,,2013-05-04 13:42:00,
2013-05-04 09:52:00,60.0,50.0,30.03,ENE,67,7.0,14.0,69,0.00,,,0.00,,2013-05-04 13:52:00,
2013-05-04 10:02:00,61.0,50.0,30.03,East,90,4.0,8.0,67,0.00,,,0.00,,2013-05-04 14:02:00,
2013-05-04 10:11:00,61.0,50.0,30.03,East,90,4.0,8.0,67,0.00,,,0.00,,2013-05-04 14:11:00,
2013-05-04 10:21:00,62.0,50.0,30.02,ENE,67,5.0,10.0,64,0.00,,,0.00,,2013-05-04 14:21:00,
2013-05-04 10:32:00,62.0,49.0,30.02,East,90,6.0,14.0,62,0.00,,,0.00,,2013-05-04 14:32:00,
2013-05-04 10:42:00,62.0,49.0,30.02,East,90,6.0,14.0,62,0.00,,,0.00,,2013-05-04 14:42:00,
2013-05-04 10:52:00,63.0,49.0,30.03,SE,135,7.0,12.0,60,0.00,,,0.00,,2013-05-04 14:52:00,
2013-05-04 11:02:00,64.0,50.0,30.02,East,90,5.0,9.0,60,0.00,,,0.00,,2013-05-04 15:02:00,
2013-05-04 11:12:00,64.0,50.0,30.02,East,90,5.0,9.0,60,0.00,,,0.00,,2013-05-04 15:12:00,
2013-05-04 11:22:00,64.0,48.0,30.01,East,90,6.0,10.0,57,0.00,,,0.00,,2013-05-04 15:22:00,
2013-05-04 11:33:00,64.0,48.0,30.02,ENE,67,6.0,7.0,57,0.00,,,0.00,,2013-05-04 15:33:00,
2013-05-04 11:43:00,64.0,48.0,30.02,ENE,67,6.0,7.0,57,0.00,,,0.00,,2013-05-04 15:43:00,
2013-05-04 11:53:00,64.0,48.0,30.03,East,90,7.0,11.0,57,0.00,,,0.00,,2013-05-04 15:53:00,
2013-05-04 12:03:00,65.0,48.0,30.03,East,90,5.0,13.0,55,0.00,,,0.00,,2013-05-04 16:03:00,
2013-05-04 12:12:00,65.0,48.0,30.03,East,90,5.0,13.0,55,0.00,,,0.00,,2013-05-04 16:12:00,
2013-05-04 12:22:00,67.0,49.0,30.01,NE,45,6.0,6.0,53,0.00,,,0.00,,2013-05-04 16:22:00,
2013-05-04 12:33:00,66.0,48.0,30.02,NE,45,6.0,7.0,52,0.00,,,0.00,,2013-05-04 16:33:00,
2013-05-04 12:42:00,66.0,48.0,30.02,NE,45,6.0,7.0,52,0.00,,,0.00,,2013-05-04 16:42:00,
2013-05-04 12:52:00,67.0,48.0,30.02,NNE,22,6.0,6.0,50,0.00,,,0.00,,2013-05-04 16:52:00,
2013-05-04 13:02:00,67.0,48.0,30.01,ENE,67,6.0,10.0,50,0.00,,,0.00,,2013-05-04 17:02:00,
2013-05-04 13:12:00,67.0,48.0,30.01,ENE,67,6.0,10.0,50,0.00,,,0.00,,2013-05-04 17:12:00,
2013-05-04 13:22:00,67.0,46.0,30.00,ENE,67,6.0,11.0,47,0.00,,,0.00,,2013-05-04 17:22:00,
2013-05-04 13:32:00,66.0,47.0,30.00,ENE,67,5.0,12.0,50,0.00,,,0.00,,2013-05-04 17:32:00,
2013-05-04 13:42:00,66.0,47.0,30.00,ENE,67,5.0,12.0,50,0.00,,,0.00,,2013-05-04 17:42:00,
2013-05-04 13:52:00,67.0,47.0,30.01,East,90,4.0,10.0,48,0.00,,,0.00,,2013-05-04 17:52:00,
2013-05-04 14:01:00,68.0,46.0,29.98,ESE,112,6.0,9.0,45,0.00,,,0.00,,2013-05-04 18:01:00,
2013-05-04 14:12:00,68.0,46.0,29.98,ESE,112,6.0,9.0,45,0.00,,,0.00,,2013-05-04 18:12:00,
2013-05-04 14:22:00,68.0,46.0,29.98,East,90,6.0,17.0,45,0.00,,,0.00,,2013-05-04 18:22:00,
2013-05-04 14:32:00,68.0,46.0,29.98,East,90,7.0,14.0,45,0.00,,,0.00,,2013-05-04 18:32:00,
2013-05-04 14:42:00,68.0,46.0,29.98,East,90,7.0,14.0,45,0.00,,,0.00,,2013-05-04 18:42:00,
2013-05-04 14:52:00,69.0,45.0,29.98,East,90,6.0,14.0,42,0.00,,,0.00,,2013-05-04 18:52:00,
2013-05-04 15:01:00,70.0,45.0,29.96,NE,45,6.0,10.0,41,0.00,,,0.00,,2013-05-04 19:01:00,
2013-05-04 15:11:00,70.0,45.0,29.96,NE,45,6.0,10.0,41,0.00,,,0.00,,2013-05-04 19:11:00,
2013-05-04 15:21:00,69.0,44.0,29.97,SE,135,6.0,9.0,41,0.00,,,0.00,,2013-05-04 19:21:00,
2013-05-04 15:32:00,68.0,42.0,29.97,East,90,6.0,17.0,39,0.00,,,0.00,,2013-05-04 19:32:00,
2013-05-04 15:42:00,68.0,42.0,29.97,East,90,6.0,17.0,39,0.00,,,0.00,,2013-05-04 19:42:00,
2013-05-04 15:52:00,68.0,41.0,29.97,East,90,7.0,14.0,38,0.00,,,0.00,,2013-05-04 19:52:00,
2013-05-04 16:02:00,68.0,41.0,29.98,NE,45,8.0,10.0,38,0.00,,,0.00,,2013-05-04 20:02:00,
2013-05-04 16:11:00,68.0,41.0,29.98,NE,45,8.0,10.0,38,0.00,,,0.00,,2013-05-04 20:11:00,
2013-05-04 16:22:00,68.0,41.0,29.98,NE,45,8.0,10.0,38,0.00,,,0.00,,2013-05-04 20:22:00,
2013-05-04 16:32:00,68.0,41.0,29.97,East,90,7.0,10.0,38,0.00,,,0.00,,2013-05-04 20:32:00,
2013-05-04 16:42:00,68.0,41.0,29.97,East,90,7.0,10.0,38,0.00,,,0.00,,2013-05-04 20:42:00,
2013-05-04 16:52:00,68.0,41.0,29.96,ENE,67,8.0,14.0,37,0.00,,,0.00,,2013-05-04 20:52:00,
2013-05-04 17:02:00,68.0,41.0,29.96,East,90,7.0,8.0,38,0.00,,,0.00,,2013-05-04 21:02:00,
2013-05-04 17:12:00,68.0,41.0,29.96,East,90,7.0,8.0,38,0.00,,,0.00,,2013-05-04 21:12:00,
2013-05-04 17:22:00,68.0,41.0,29.97,East,90,8.0,18.0,38,0.00,,,0.00,,2013-05-04 21:22:00,
2013-05-04 17:33:00,67.0,40.0,29.97,ENE,67,8.0,15.0,37,0.00,,,0.00,,2013-05-04 21:33:00,
2013-05-04 17:43:00,67.0,40.0,29.97,ENE,67,8.0,15.0,37,0.00,,,0.00,,2013-05-04 21:43:00,
2013-05-04 17:53:00,67.0,41.0,29.97,ESE,112,5.0,7.0,39,0.00,,,0.00,,2013-05-04 21:53:00,
2013-05-04 18:03:00,67.0,42.0,29.98,ESE,112,7.0,10.0,40,0.00,,,0.00,,2013-05-04 22:03:00,
2013-05-04 18:12:00,67.0,42.0,29.98,ESE,112,7.0,10.0,40,0.00,,,0.00,,2013-05-04 22:12:00,
2013-05-04 18:22:00,67.0,42.0,29.98,ENE,67,4.0,9.0,40,0.00,,,0.00,,2013-05-04 22:22:00,
2013-05-04 18:33:00,67.0,43.0,29.98,ENE,67,6.0,6.0,42,0.00,,,0.00,,2013-05-04 22:33:00,
2013-05-04 18:42:00,67.0,44.0,29.97,NE,45,4.0,6.0,43,0.00,,,0.00,,2013-05-04 22:42:00,
2013-05-04 18:52:00,67.0,44.0,29.97,NE,45,4.0,6.0,43,0.00,,,0.00,,2013-05-04 22:52:00,
2013-05-04 19:02:00,67.0,45.0,29.98,ENE,67,4.0,7.0,45,0.00,,,0.00,,2013-05-04 23:02:00,
2013-05-04 19:12:00,67.0,45.0,29.98,ENE,67,4.0,7.0,45,0.00,,,0.00,,2013-05-04 23:12:00,
2013-05-04 19:22:00,67.0,46.0,29.98,ESE,112,8.0,15.0,46,0.00,,,0.00,,2013-05-04 23:22:00,
2013-05-04 19:32:00,67.0,46.0,29.98,East,90,4.0,7.0,47,0.00,,,0.00,,2013-05-04 23:32:00,
2013-05-04 19:42:00,67.0,46.0,29.98,East,90,4.0,7.0,47,0.00,,,0.00,,2013-05-04 23:42:00,
2013-05-04 19:52:00,66.0,46.0,30.00,ENE,67,2.0,5.0,49,0.00,,,0.00,,2013-05-04 23:52:00,
2013-05-04 20:02:00,65.0,47.0,30.01,NE,45,1.0,6.0,53,0.00,,,0.00,,2013-05-05 00:02:00,
2013-05-04 20:11:00,65.0,47.0,30.01,NE,45,1.0,6.0,53,0.00,,,0.00,,2013-05-05 00:11:00,
2013-05-04 20:21:00,64.0,47.0,30.02,East,90,3.0,10.0,55,0.00,,,0.00,,2013-05-05 00:21:00,
2013-05-04 20:32:00,64.0,48.0,30.03,East,90,2.0,7.0,57,0.00,,,0.00,,2013-05-05 00:32:00,
2013-05-04 20:42:00,64.0,48.0,30.03,East,90,2.0,7.0,57,0.00,,,0.00,,2013-05-05 00:42:00,
2013-05-04 20:52:00,63.0,48.0,30.03,ENE,67,2.0,7.0,58,0.00,,,0.00,,2013-05-05 00:52:00,
2013-05-04 21:01:00,63.0,48.0,30.03,NNE,22,1.0,3.0,59,0.00,,,0.00,,2013-05-05 01:01:00,
2013-05-04 21:11:00,62.0,48.0,30.03,NE,45,1.0,6.0,61,0.00,,,0.00,,2013-05-05 01:11:00,
2013-05-04 21:21:00,62.0,48.0,30.03,NE,45,1.0,6.0,61,0.00,,,0.00,,2013-05-05 01:21:00,
2013-05-04 21:32:00,62.0,48.0,30.05,NE,45,1.0,2.0,60,0.00,,,0.00,,2013-05-05 01:32:00,
2013-05-04 21:42:00,62.0,48.0,30.05,NE,45,1.0,2.0,60,0.00,,,0.00,,2013-05-05 01:42:00,
2013-05-04 21:52:00,61.0,47.0,30.05,ENE,67,3.0,8.0,60,0.00,,,0.00,,2013-05-05 01:52:00,
2013-05-04 22:02:00,61.0,47.0,30.05,ENE,67,2.0,6.0,60,0.00,,,0.00,,2013-05-05 02:02:00,
2013-05-04 22:11:00,61.0,47.0,30.05,ENE,67,2.0,6.0,60,0.00,,,0.00,,2013-05-05 02:11:00,
2013-05-04 22:22:00,60.0,46.0,30.05,East,90,2.0,6.0,60,0.00,,,0.00,,2013-05-05 02:22:00,
2013-05-04 22:32:00,60.0,46.0,30.07,NE,45,0.0,0.0,60,0.00,,,0.00,,2013-05-05 02:32:00,
2013-05-04 22:42:00,60.0,46.0,30.07,NE,45,0.0,0.0,60,0.00,,,0.00,,2013-05-05 02:42:00,
2013-05-04 22:52:00,59.0,45.0,30.07,East,90,1.0,7.0,60,0.00,,,0.00,,2013-05-05 02:52:00,
2013-05-04 23:01:00,59.0,45.0,30.08,NE,45,1.0,3.0,59,0.00,,,0.00,,2013-05-05 03:01:00,
2013-05-04 23:11:00,58.0,45.0,30.07,ENE,67,0.0,0.0,61,0.00,,,0.00,,2013-05-05 03:11:00,
2013-05-04 23:22:00,58.0,45.0,30.07,ENE,67,0.0,0.0,61,0.00,,,0.00,,2013-05-05 03:22:00,
2013-05-04 23:33:00,58.0,45.0,30.07,NE,45,1.0,4.0,62,0.00,,,0.00,,2013-05-05 03:33:00,
2013-05-04 23:42:00,58.0,45.0,30.07,NE,45,1.0,4.0,62,0.00,,,0.00,,2013-05-05 03:42:00,
2013-05-04 23:53:00,57.0,45.0,30.07,NE,45,0.0,2.0,63,0.00,,,0.00,,2013-05-05 03:53:00,